User: anonymous
Location: Fort Wayne
(41.1310°N, 85.1290°W)
Time: 15:19:17
(UTC-04:00)
Language:

Meteor 2-9 Rocket - Orbit

View from above orbital plane
View from above orbital plane
View from above satellite
View from above satellite

Ground track
Ground track

The orbit data is extracted from the following two-line orbital elements,

1 13719U 82116B   14113.40804829  .00000273  00000-0  13257-3 0  4004
2 13719 081.2572 047.5911 0072386 036.1160 102.9199 14.14454781617675
Epoch (UTC): 23 April 2014 09:47:35
Eccentricity: 0.0072386
inclination: 81.2572°
perigee height: 792 km
apogee height: 896 km
right ascension of ascending node: 47.5911°
argument of perigee: 36.1160°
revolutions per day: 14.14454781
mean anomaly at epoch: 102.9199°
orbit number at epoch: 61767

The dashed part of the orbit path shows where the satellite is in the earth's shadow,  

DLR